Date,TemperatureHighF,TemperatureAvgF,TemperatureLowF,DewpointHighF,DewpointAvgF,DewpointLowF,HumidityHigh,HumidityAvg,HumidityLow,PressureMaxIn,PressureMinIn,WindSpeedMaxMPH,WindSpeedAvgMPH,GustSpeedMaxMPH,PrecipitationSumIn
2013-1-1,48,43,34,39,31,23,86,64,46,30.35,30.06,12,1,0,0.00
2013-1-2,46,36,28,27,25,22,82,64,45,30.43,30.31,9,0,0,0.03
2013-1-3,41,34,27,30,26,22,92,71,52,30.59,30.42,12,1,0,0.00
2013-1-4,36,34,32,33,32,30,95,93,88,30.60,30.46,7,0,0,0.36
2013-1-5,54,41,34,36,33,30,95,75,46,30.46,30.31,15,2,0,0.07
2013-1-6,55,41,29,31,28,23,85,62,33,30.54,30.38,8,0,0,0.00
2013-1-7,54,39,27,34,28,24,87,68,37,30.40,30.13,13,1,0,0.00
2013-1-8,48,44,37,47,41,30,96,90,74,30.13,29.98,16,2,0,0.11
2013-1-9,48,46,43,47,45,42,96,95,92,30.21,29.93,17,2,0,0.07
2013-1-10,61,49,42,46,42,39,100,79,48,30.11,29.98,18,3,0,0.05
2013-1-11,73,59,48,53,46,40,88,64,35,29.98,29.76,22,4,0,0.02
2013-1-12,59,50,34,54,37,24,85,61,38,30.07,29.77,14,2,0,0.01
2013-1-13,42,32,25,26,22,18,82,65,47,30.34,30.07,13,2,0,0.10
2013-1-14,43,32,23,24,19,14,74,60,43,30.41,30.25,14,3,0,0.02
2013-1-15,40,33,26,23,19,17,75,58,40,30.40,30.26,14,1,0,0.02
2013-1-16,54,37,21,29,22,16,86,60,26,30.45,30.30,18,2,0,0.00
2013-1-17,60,46,32,33,29,26,82,56,31,30.61,30.42,10,1,0,0.00
2013-1-18,65,46,28,34,30,24,90,57,26,30.56,30.30,18,2,0,0.00
2013-1-19,72,54,38,36,32,28,77,47,21,30.30,30.15,18,3,0,0.00
2013-1-20,71,48,34,35,29,24,75,53,18,30.31,30.11,11,1,8,0.00
2013-1-21,56,44,33,35,30,25,79,58,42,30.35,30.18,11,1,11,0.00
2013-1-22,69,50,33,52,39,26,89,66,45,30.36,30.21,20,2,20,0.00
2013-1-23,78,60,45,56,48,43,97,71,31,30.31,30.16,16,3,16,0.00
2013-1-24,83,66,54,57,50,42,91,62,24,30.22,30.04,20,4,20,0.00
2013-1-25,72,61,48,53,46,35,84,60,33,30.20,30.03,15,3,15,0.00
2013-1-26,70,55,41,58,46,35,88,71,60,30.21,30.03,12,2,12,0.00
2013-1-27,79,66,58,57,54,52,86,67,43,30.04,29.88,18,4,18,0.00
2013-1-28,79,70,63,62,59,57,88,71,48,29.94,29.73,23,6,23,0.00
2013-1-29,69,61,48,63,40,16,87,52,24,29.87,29.61,30,9,30,0.01
2013-1-30,53,44,35,26,17,9,63,36,17,30.25,29.87,24,4,24,0.00
2013-1-31,69,50,31,24,19,13,52,31,15,30.33,30.19,21,3,21,0.00
2013-2-1,69,50,37,41,26,19,64,40,24,30.36,30.14,22,1,22,0.00
2013-2-2,65,55,45,47,37,27,88,55,29,30.37,30.15,17,4,17,0.00
2013-2-3,69,52,34,50,38,26,74,58,37,30.39,29.96,18,2,18,0.00
2013-2-4,75,62,50,50,41,29,76,49,22,29.97,29.81,18,3,18,0.00
2013-2-5,76,58,38,44,35,30,76,46,22,30.05,29.92,9,0,9,0.00
2013-2-6,78,61,43,56,46,36,87,61,30,29.99,29.80,16,2,16,0.00
2013-2-7,72,62,52,57,46,33,93,59,25,30.19,29.87,16,4,16,0.00
2013-2-8,64,52,39,39,29,24,72,45,23,30.31,30.07,15,2,15,0.00
2013-2-9,69,60,50,58,46,26,88,62,34,30.08,29.67,25,5,25,0.18
2013-2-10,67,56,43,58,21,10,89,27,11,30.01,29.74,21,2,21,0.01
2013-2-11,62,52,43,43,34,19,76,53,37,30.11,29.97,18,3,18,0.00
2013-2-12,63,50,36,50,36,23,96,66,22,30.18,29.91,25,4,25,0.01
2013-2-13,63,46,29,34,25,15,88,53,16,30.25,30.07,13,1,13,0.00
2013-2-14,71,50,28,30,21,14,72,37,12,30.16,29.99,16,2,16,0.00
2013-2-15,53,45,35,35,28,18,77,53,32,30.49,30.10,16,4,16,0.00
2013-2-16,67,46,26,27,21,14,71,41,13,30.54,30.21,17,2,17,0.00
2013-2-17,72,57,41,47,30,20,67,39,15,30.22,29.84,22,6,22,0.00
2013-2-18,73,61,47,50,34,15,83,46,11,30.13,29.81,30,6,30,0.00
2013-2-19,60,52,41,32,27,23,60,41,24,30.28,30.07,17,5,17,0.00
2013-2-20,55,51,48,51,44,32,97,81,41,30.09,29.62,18,5,18,0.04
2013-2-21,65,54,43,53,32,20,98,52,18,29.93,29.57,32,4,32,0.05
2013-2-22,56,42,29,36,27,21,83,59,35,30.18,29.92,12,2,12,0.00
2013-2-23,68,48,28,31,21,9,84,44,10,30.17,29.89,19,1,19,0.00
2013-2-24,79,59,36,53,36,20,74,45,17,29.89,29.52,20,4,20,0.00
2013-2-25,62,43,38,54,30,21,75,59,41,30.01,29.58,35,8,35,0.08
2013-2-26,68,48,27,27,23,18,82,45,17,30.07,29.83,14,2,14,0.00
2013-2-27,57,47,34,31,22,11,75,42,16,30.35,29.86,19,3,19,0.00
2013-2-28,61,45,29,29,21,17,76,43,18,30.44,30.28,11,1,11,0.00
2013-3-1,65,39,26,24,18,12,66,46,15,30.41,30.26,24,1,24,0.00
2013-3-2,68,51,31,29,26,20,69,40,21,30.51,30.27,11,1,11,0.00
2013-3-3,79,59,37,28,23,17,62,31,10,30.27,29.80,22,6,29,0.00
2013-3-4,84,68,54,31,20,4,36,18,5,29.82,29.67,27,5,27,0.00
2013-3-5,66,50,41,41,21,11,59,34,12,30.44,29.81,22,5,22,0.00
2013-3-6,67,48,28,17,14,9,50,28,13,30.49,30.21,18,2,18,0.00
2013-3-7,73,58,45,48,33,14,70,40,25,30.21,30.03,19,4,19,0.00
2013-3-8,72,65,57,58,56,47,85,73,59,30.05,29.85,23,5,23,0.00
2013-3-9,81,69,62,59,48,23,81,52,24,29.85,29.63,25,6,25,0.00
2013-3-10,61,53,43,30,21,13,49,30,17,30.19,29.80,27,7,27,0.00
2013-3-11,73,51,30,24,17,11,49,28,13,30.26,30.02,13,1,18,0.00
2013-3-12,73,59,47,29,23,16,34,26,13,30.34,30.03,23,5,23,0.00
2013-3-13,79,59,40,37,28,23,51,33,15,30.46,30.24,19,1,19,0.00
2013-3-14,82,66,53,46,39,31,65,40,20,30.31,30.14,22,4,22,0.00
2013-3-15,86,69,56,51,43,37,74,42,18,30.17,29.88,19,5,19,0.00
2013-3-16,92,74,58,49,41,30,68,35,11,29.88,29.60,23,6,23,0.00
2013-3-17,82,68,50,49,41,35,70,41,19,29.82,29.62,18,2,18,0.00
2013-3-18,77,66,53,41,34,21,52,32,23,29.96,29.71,14,1,18,0.00
2013-3-19,86,58,43,48,38,29,81,56,14,30.10,29.80,22,3,25,0.00
2013-3-20,73,60,49,46,33,29,61,38,21,30.31,29.99,16,5,16,0.00
2013-3-21,85,68,54,55,47,30,71,49,27,29.99,29.49,30,6,30,0.00
2013-3-22,73,62,50,57,48,41,87,61,34,29.79,29.58,21,3,21,0.00
2013-3-23,84,63,47,49,33,6,79,46,7,29.88,29.60,34,5,34,0.00
2013-3-24,59,45,32,41,19,10,70,38,15,30.27,29.88,26,5,26,0.00
2013-3-25,56,44,31,18,12,6,51,30,14,30.46,30.22,13,3,13,0.00
2013-3-26,67,50,28,19,15,11,53,28,11,30.52,30.24,23,4,23,0.00
2013-3-27,76,59,45,46,35,17,62,41,25,30.26,30.04,26,5,26,0.00
2013-3-28,82,65,49,54,50,44,85,59,37,30.12,29.99,18,3,18,0.00
2013-3-29,79,65,60,58,56,54,84,74,46,30.11,29.98,20,3,20,0.00
2013-3-30,88,73,60,60,55,46,86,58,25,30.08,29.81,26,4,26,0.00
2013-3-31,82,72,65,59,53,46,73,53,32,29.98,29.84,19,3,19,0.00
2013-4-1,90,72,53,59,50,44,82,51,21,30.05,29.80,19,3,19,0.00
2013-4-2,75,61,43,62,53,41,94,76,54,29.99,29.83,19,3,19,0.25
2013-4-3,48,44,41,41,39,38,93,85,73,30.28,29.97,18,2,18,0.00
2013-4-4,72,53,40,45,38,34,84,63,26,30.35,30.13,14,1,14,0.00
2013-4-5,82,60,40,48,41,37,93,57,22,30.26,29.98,18,2,18,0.00
2013-4-6,90,71,56,55,46,39,69,44,19,29.99,29.72,26,5,26,0.00
2013-4-7,94,75,59,60,53,36,87,55,14,29.81,29.61,25,4,25,0.00
2013-4-8,91,76,65,62,58,45,85,58,23,29.69,29.48,22,4,22,0.00
2013-4-9,94,76,49,64,50,30,82,51,11,29.72,29.43,21,5,21,0.00
2013-4-10,61,48,36,37,34,29,91,62,35,30.05,29.72,21,2,21,0.06
2013-4-11,76,55,35,36,31,20,85,46,14,30.07,29.77,20,1,20,0.00
2013-4-12,86,65,41,45,37,33,78,42,17,29.97,29.77,20,2,20,0.00
2013-4-13,83,70,56,50,39,33,54,35,20,29.89,29.68,21,4,21,0.00
2013-4-14,94,76,58,56,39,20,81,38,8,29.74,29.50,26,4,26,0.00
2013-4-15,95,82,69,61,44,26,66,31,10,29.67,29.58,22,4,22,0.00
2013-4-16,98,82,68,65,61,48,81,51,27,29.77,29.62,19,3,19,0.00
2013-4-17,96,80,72,68,66,49,79,65,21,29.74,29.45,26,6,26,0.00
2013-4-18,77,57,44,68,37,22,89,51,21,30.19,29.53,35,3,35,0.26
2013-4-19,68,54,35,31,25,16,77,38,14,30.40,30.16,13,0,18,0.00
2013-4-20,80,63,48,34,27,23,42,27,14,30.18,29.85,25,4,25,0.00
2013-4-21,83,66,50,50,44,32,75,46,25,30.08,29.92,17,2,18,0.00
2013-4-22,90,73,59,58,54,47,82,55,24,30.00,29.73,27,4,27,0.00
2013-4-23,74,56,45,60,42,31,73,59,50,30.25,29.70,20,2,20,0.00
2013-4-24,65,50,36,32,28,24,68,45,25,30.42,30.22,12,1,18,0.00
2013-4-25,73,62,54,50,41,32,60,46,38,30.34,30.08,21,4,21,0.00
2013-4-26,91,72,60,60,53,42,84,55,20,30.11,29.90,17,1,18,0.00
2013-4-27,85,72,60,59,50,39,87,51,22,30.10,29.95,0,0,18,0.00
2013-4-28,92,72,51,62,48,40,82,49,18,30.01,29.79,0,0,18,0.00
2013-4-29,90,75,57,56,49,43,73,44,20,29.89,29.69,0,0,18,0.00
2013-4-30,96,78,64,62,57,48,86,53,22,29.75,29.58,0,0,18,0.00
2013-5-1,98,80,68,65,60,47,82,54,23,29.93,29.67,0,0,18,0.02
2013-5-2,69,48,41,60,37,30,82,65,47,30.52,29.92,0,0,18,0.00
2013-5-3,71,53,33,31,23,15,76,39,13,30.51,30.11,0,0,18,0.00
2013-5-4,82,65,43,29,23,17,43,22,10,30.11,29.91,0,0,18,0.00
2013-5-5,80,64,48,40,34,25,52,33,19,30.20,30.03,0,0,18,0.00
2013-5-6,66,60,52,54,47,38,86,64,41,30.15,30.01,0,0,18,0.06
2013-5-7,88,70,50,53,48,44,85,52,26,30.08,29.86,0,0,18,0.00
2013-5-8,85,70,61,64,57,47,81,65,41,29.93,29.77,0,0,18,0.00
2013-5-9,82,72,63,68,62,58,92,74,52,29.91,29.78,0,0,0,0.31
2013-5-10,83,65,58,61,58,53,92,78,39,30.14,29.87,0,0,0,0.30
2013-5-11,80,67,53,57,50,43,95,61,29,30.21,30.08,0,0,0,0.01
2013-5-12,81,68,54,54,48,41,82,53,27,30.29,30.12,0,0,0,0.00
2013-5-13,90,74,56,50,43,32,68,38,14,30.25,30.08,0,0,0,0.00
2013-5-14,88,74,62,60,55,47,92,54,35,30.15,29.90,0,0,0,0.35
2013-5-15,93,74,61,66,59,49,95,66,24,30.05,29.68,24,1,0,0.22
2013-5-16,105,84,69,68,59,43,86,50,13,29.75,29.61,16,1,0,0.00
2013-5-17,108,88,69,65,54,36,73,39,9,29.75,29.65,16,2,0,0.00
2013-5-18,100,88,76,70,65,58,73,49,26,29.74,29.61,22,4,0,0.00
2013-5-19,100,86,72,66,50,24,74,39,7,29.72,29.59,25,2,0,0.00
2013-5-20,102,86,74,70,54,23,80,44,7,29.71,29.57,22,2,0,0.00
2013-5-21,94,80,70,69,58,39,81,51,16,29.84,29.60,20,2,0,0.00
2013-5-22,98,79,54,61,50,44,78,41,17,29.91,29.71,18,2,0,0.00
2013-5-23,98,83,65,70,66,58,90,59,34,30.08,29.73,26,5,0,0.40
2013-5-24,82,72,63,65,62,60,95,73,53,30.13,29.89,18,3,5,0.66
2013-5-25,88,76,67,68,65,63,91,71,49,30.09,29.90,17,3,0,0.00
2013-5-26,92,79,65,69,65,57,91,63,43,30.03,29.81,18,3,0,0.14
2013-5-27,88,80,73,70,68,66,84,68,52,29.90,29.71,24,5,0,0.00
2013-5-28,84,77,71,69,67,65,84,73,54,29.79,29.58,25,5,0,0.03
2013-5-29,90,80,71,68,67,65,86,66,45,29.69,29.54,26,4,0,0.00
2013-5-30,98,84,74,70,66,57,83,59,27,29.72,29.61,22,4,0,0.00
2013-5-31,99,85,74,72,69,66,87,62,36,29.76,29.60,20,4,0,0.00
2013-6-1,95,84,76,72,67,56,83,59,43,29.93,29.63,23,2,0,0.00
2013-6-2,92,81,69,60,56,51,65,44,29,30.06,29.84,15,2,17,0.00
2013-6-3,98,82,68,68,62,55,68,51,32,29.95,29.73,21,2,11,0.00
2013-6-4,105,89,74,68,64,59,71,46,26,29.79,29.63,19,4,19,0.00
2013-6-5,104,85,69,66,61,52,80,48,19,29.79,29.61,26,2,26,0.48
2013-6-6,92,73,66,66,61,58,85,69,40,29.93,29.72,18,1,18,0.00
2013-6-7,85,73,66,65,60,51,94,68,36,30.03,29.86,18,2,18,0.25
2013-6-8,91,77,62,66,61,55,82,58,41,29.93,29.71,17,2,17,0.00
2013-6-9,93,80,65,68,65,59,95,62,36,29.95,29.75,16,2,16,0.22
2013-6-10,100,83,69,71,62,44,89,56,16,29.97,29.84,17,2,17,0.00
2013-6-11,99,85,73,70,64,59,80,51,28,29.95,29.84,16,3,16,0.00
2013-6-12,95,83,72,68,65,62,83,56,35,29.99,29.85,21,4,21,0.00
2013-6-13,98,83,74,70,67,61,83,61,31,30.00,29.83,23,2,23,0.03
2013-6-14,87,77,67,69,67,64,91,72,52,29.98,29.88,17,2,17,0.08
2013-6-15,86,77,68,72,68,64,92,75,56,29.99,29.86,20,2,20,0.15
2013-6-16,98,84,70,73,69,66,90,64,37,30.00,29.82,16,2,16,0.00
2013-6-17,100,86,70,72,69,61,89,61,33,29.99,29.75,20,3,20,0.15
2013-6-18,92,78,65,68,65,62,95,68,42,30.01,29.87,15,1,15,0.38
2013-6-19,99,84,70,71,66,60,88,57,30,29.91,29.82,18,2,18,0.00
2013-6-20,96,85,76,68,66,63,76,54,35,29.95,29.82,23,4,23,0.00
2013-6-21,96,82,75,70,67,60,81,63,34,29.97,29.85,21,2,21,0.00
2013-6-22,98,86,74,69,62,56,78,48,26,29.93,29.78,23,3,23,0.00
2013-6-23,97,86,75,67,62,57,64,47,28,29.87,29.76,23,4,23,0.00
2013-6-24,96,84,73,69,65,61,77,55,34,29.93,29.78,21,4,21,0.00
2013-6-25,102,88,77,70,67,62,76,52,30,29.89,29.73,20,4,20,0.00
2013-6-26,106,90,76,71,67,62,75,49,25,29.85,29.75,18,3,18,0.00
2013-6-27,107,91,77,69,60,48,74,41,16,29.93,29.82,16,2,16,0.00
2013-6-28,106,90,71,67,58,52,64,38,20,29.97,29.78,16,0,16,0.00
2013-6-29,106,92,76,68,60,54,69,38,19,29.87,29.71,14,0,14,0.00
2013-6-30,93,83,70,68,64,58,91,55,34,29.93,29.77,23,1,23,0.11
2013-7-1,86,77,69,66,58,48,76,53,36,30.10,29.89,13,1,13,0.00
2013-7-2,90,77,62,55,48,41,70,39,21,30.14,29.97,13,1,13,0.00
2013-7-3,96,78,58,50,44,38,67,35,14,30.07,29.88,13,1,13,0.00
2013-7-4,96,80,64,60,50,42,55,37,21,29.96,29.80,15,2,15,0.00
2013-7-5,100,86,72,58,52,47,56,33,18,29.93,29.75,19,2,19,0.00
2013-7-6,100,87,73,60,55,49,60,36,21,29.88,29.74,18,3,18,0.00
2013-7-7,99,87,73,66,59,53,69,41,24,29.93,29.81,18,2,18,0.00
2013-7-8,97,86,76,70,65,57,74,52,33,30.01,29.89,17,2,17,0.00
2013-7-9,99,86,73,69,64,58,80,50,28,30.07,29.92,19,2,19,0.00
2013-7-10,103,89,75,70,63,57,74,45,25,30.04,29.83,16,2,16,0.00
2013-7-11,100,89,77,67,62,58,69,42,27,29.93,29.79,13,2,13,0.00
2013-7-12,104,90,77,69,58,44,65,38,16,29.90,29.79,15,2,15,0.00
2013-7-13,105,90,76,64,54,48,53,32,16,29.95,29.79,14,1,14,0.00
2013-7-14,104,87,71,64,57,50,78,38,18,29.86,29.70,25,3,25,0.00
2013-7-15,72,66,63,66,64,61,96,92,77,30.06,29.84,20,1,20,1.37
2013-7-16,82,70,66,74,68,65,98,94,69,30.15,30.03,14,0,14,0.82
2013-7-17,84,74,70,73,69,67,95,87,63,30.20,30.09,16,2,16,0.68
2013-7-18,87,74,70,72,69,67,96,85,53,30.17,30.02,24,2,24,0.51
2013-7-19,93,79,66,71,67,62,97,71,41,30.08,29.89,13,1,13,0.00
2013-7-20,95,83,72,70,66,60,84,60,34,29.95,29.79,11,2,11,0.00
2013-7-21,96,83,72,72,68,65,88,64,39,29.91,29.79,15,2,15,0.01
2013-7-22,96,85,75,73,70,67,86,63,41,29.92,29.80,16,3,16,0.00
2013-7-23,98,87,76,75,70,63,86,60,40,29.90,29.79,19,2,19,0.00
2013-7-24,101,88,74,72,66,60,75,51,32,29.93,29.81,15,2,15,0.00
2013-7-25,100,85,73,71,67,63,84,58,32,29.98,29.87,12,1,7,0.00
2013-7-26,101,87,79,71,67,59,71,53,35,29.98,29.83,14,2,0,0.00
2013-7-27,93,81,69,68,63,52,86,56,28,30.01,29.87,13,1,0,0.00
2013-7-28,101,84,65,69,64,58,87,55,29,29.93,29.76,16,2,0,0.00
2013-7-29,99,87,77,73,67,57,80,55,31,29.90,29.82,17,3,0,0.00
2013-7-30,102,88,78,72,67,62,76,51,32,29.99,29.87,18,2,0,0.00
2013-7-31,104,90,77,70,65,60,76,46,26,30.03,29.87,14,2,0,0.00
2013-8-1,105,90,73,67,62,58,68,42,23,30.00,29.84,11,1,0,0.00
2013-8-2,104,91,78,64,61,56,59,39,22,29.91,29.77,16,2,0,0.00
2013-8-3,104,90,77,64,60,55,62,38,22,29.92,29.82,15,3,0,0.00
2013-8-4,102,90,78,70,63,55,75,43,24,29.99,29.82,16,3,0,0.00
2013-8-5,102,90,78,68,63,56,66,42,25,29.95,29.76,18,3,0,0.00
2013-8-6,107,90,78,69,64,57,70,44,21,29.84,29.69,18,2,0,0.00
2013-8-7,109,90,78,71,63,57,76,44,19,29.84,29.66,28,3,0,0.04
2013-8-8,106,85,72,71,67,57,92,61,22,29.84,29.67,17,2,0,0.14
2013-8-9,105,86,71,71,65,57,88,55,23,29.95,29.80,13,1,0,0.00
2013-8-10,96,86,75,71,68,62,82,57,33,30.06,29.92,15,1,0,0.00
2013-8-11,99,86,71,69,65,60,82,52,29,30.04,29.90,13,1,0,0.00
2013-8-12,100,87,73,69,65,60,82,52,31,30.01,29.86,15,2,0,0.00
2013-8-13,97,83,77,69,65,60,72,56,31,29.98,29.91,15,3,0,0.00
2013-8-14,100,82,80,67,65,60,63,57,27,30.02,29.86,10,1,10,0.00
2013-8-15,99,78,70,69,65,62,83,67,32,30.00,29.87,18,0,18,0.00
2013-8-16,99,79,66,66,61,51,90,59,21,30.15,29.92,24,2,24,0.00
2013-8-17,98,82,66,65,60,54,86,52,24,30.06,29.90,14,2,14,0.00
2013-8-18,100,83,67,63,58,55,71,45,27,30.03,29.89,16,2,16,0.00
2013-8-19,100,85,69,62,59,56,66,43,26,30.00,29.84,15,2,15,0.00
2013-8-20,84,82,80,59,58,58,48,45,43,29.92,29.91,7,0,7,0.00
2013-8-21,97,79,70,68,62,52,78,58,26,30.03,29.90,16,1,16,0.00
2013-8-22,98,86,73,68,64,58,77,51,29,30.05,29.87,14,2,14,0.00
2013-8-23,96,80,71,69,65,62,81,62,34,29.99,29.88,20,1,20,0.04
2013-8-24,98,82,67,70,66,61,93,62,31,30.06,29.92,15,2,15,0.00
2013-8-25,99,86,73,70,65,59,76,51,30,30.07,29.95,16,2,16,0.00
2013-8-26,94,83,71,69,65,62,79,56,37,30.10,29.98,16,3,16,0.00
2013-8-27,87,79,69,70,67,63,86,67,51,30.05,29.97,20,2,20,0.00
2013-8-28,96,82,71,70,64,55,89,59,28,30.08,29.95,17,2,17,0.00
2013-8-29,99,84,69,68,62,57,79,49,28,30.08,29.93,15,2,15,0.00
2013-8-30,101,86,69,65,60,57,69,44,25,30.01,29.85,14,2,14,0.00
2013-8-31,102,88,71,63,60,57,67,41,23,29.90,29.75,18,1,18,0.00
2013-9-1,103,89,71,65,61,57,71,43,22,29.87,29.75,13,1,13,0.00
2013-9-2,96,84,74,69,63,56,81,51,28,30.00,29.82,18,2,18,0.02
2013-9-3,100,84,68,68,63,60,81,53,29,30.01,29.87,14,1,14,0.00
2013-9-4,83,74,70,62,61,59,70,64,50,30.00,29.93,0,0,1,0.00
2013-9-6,98,93,83,67,60,56,51,35,28,30.05,29.90,14,3,0,0.00
2013-9-7,99,85,69,68,62,56,77,49,26,30.00,29.86,13,2,0,0.00
2013-9-8,97,82,71,70,65,60,80,59,32,29.93,29.80,18,2,0,0.00
2013-9-9,93,80,68,67,64,60,88,62,34,29.95,29.83,20,3,0,0.00
2013-9-10,86,77,72,71,67,64,91,72,54,30.02,29.92,17,2,0,0.05